^^
Saratoga-Weather Station Historical Data
Daily Summary for September 17, 2020 Units:  Metric    English   Both
Daily Weekly Monthly Yearly Custom
  High: Low: Average:
Temperature: 16 °C 7.9 °C 11.7 °C
Dew Point: 9.4 °C 6.4 °C 8.4 °C
Humidity: 93% 60% 81%
Wind Speed: 14.5km/h 0km/h 3.5km/h
Wind Gust: 20.9km/h - -
Wind- - West
Pressure: 1030.1 hPa 1024.7 hPa -
Precipitation: 0.0 mm    
Historical Graphs
 
 
Tabular Data for September 17, 2020
Time Temperature Dew Point Pressure Wind Wind Speed Wind Gust Humidity Rainfall Rate (Hourly) solar
00:00 11.6 °C 8.6 °C 1025.1 hPa Calm     82% 0.0 mm 0 W/m2
00:05 11.4 °C 8.4 °C 1024.7 hPa Calm     82% 0.0 mm 0 W/m2
00:10 11.3 °C 8.5 °C 1025.1 hPa Calm   1.6 km/h 83% 0.0 mm 0 W/m2
00:16 11.3 °C 8.5 °C 1025.1 hPa SE 1.4 km/h 1.6 km/h 83% 0.0 mm 0 W/m2
00:21 11.2 °C 8.6 °C 1025.1 hPa Calm   3.2 km/h 84% 0.0 mm 0 W/m2
00:26 11.2 °C 8.6 °C 1025.1 hPa SW 1.4 km/h 3.2 km/h 84% 0.0 mm 0 W/m2
00:31 11.1 °C 8.5 °C 1025.1 hPa Calm     84% 0.0 mm 0 W/m2
00:36 11.1 °C 8.5 °C 1025.1 hPa West 1.4 km/h 4.8 km/h 84% 0.0 mm 0 W/m2
00:41 11.2 °C 8.6 °C 1025.1 hPa WNW 1.4 km/h 4.8 km/h 84% 0.0 mm 0 W/m2
00:46 11.2 °C 8.6 °C 1025.1 hPa WSW 1.4 km/h 4.8 km/h 84% 0.0 mm 0 W/m2
00:51 11.3 °C 8.5 °C 1025.1 hPa WSW 3.2 km/h 9.7 km/h 83% 0.0 mm 0 W/m2
00:56 11.3 °C 8.5 °C 1025.1 hPa West 3.2 km/h 4.8 km/h 83% 0.0 mm 0 W/m2
01:01 11.2 °C 8.4 °C 1025.1 hPa WNW 4.7 km/h 12.9 km/h 83% 0.0 mm 0 W/m2
01:06 11.2 °C 8.4 °C 1025.1 hPa WSW 3.2 km/h 6.4 km/h 83% 0.0 mm 0 W/m2
01:11 11.2 °C 8.4 °C 1025.1 hPa West 3.2 km/h 9.7 km/h 83% 0.0 mm 0 W/m2
01:16 11.2 °C 8.4 °C 1025.1 hPa West 3.2 km/h 6.4 km/h 83% 0.0 mm 0 W/m2
01:21 11.2 °C 8.6 °C 1025.1 hPa Calm   1.6 km/h 84% 0.0 mm 0 W/m2
01:26 11.2 °C 8.4 °C 1025.1 hPa Calm   6.4 km/h 83% 0.0 mm 0 W/m2
01:31 11.1 °C 8.5 °C 1025.4 hPa West 3.2 km/h 3.2 km/h 84% 0.0 mm 0 W/m2
01:36 11.2 °C 8.6 °C 1025.4 hPa West 4.7 km/h 6.4 km/h 84% 0.0 mm 0 W/m2
01:41 11.2 °C 8.4 °C 1025.4 hPa WSW 11.3 km/h 11.3 km/h 83% 0.0 mm 0 W/m2
01:46 11.3 °C 8.7 °C 1025.4 hPa West 9.7 km/h 9.7 km/h 84% 0.0 mm 0 W/m2
01:52 11.2 °C 8.6 °C 1025.4 hPa West 4.7 km/h 11.3 km/h 84% 0.0 mm 0 W/m2
01:57 11.2 °C 8.6 °C 1025.7 hPa West 4.7 km/h 8 km/h 84% 0.0 mm 0 W/m2
02:02 11.1 °C 8.5 °C 1025.7 hPa West 3.2 km/h 9.7 km/h 84% 0.0 mm 0 W/m2
02:07 11.1 °C 8.5 °C 1025.7 hPa WNW 1.4 km/h 4.8 km/h 84% 0.0 mm 0 W/m2
02:12 11 °C 8.4 °C 1025.7 hPa WSW 4.7 km/h 4.8 km/h 84% 0.0 mm 0 W/m2
02:17 11.1 °C 8.5 °C 1025.7 hPa West 4.7 km/h 6.4 km/h 84% 0.0 mm 0 W/m2
02:22 11.1 °C 8.5 °C 1025.7 hPa NNW 1.4 km/h 6.4 km/h 84% 0.0 mm 0 W/m2
02:27 11 °C 8.6 °C 1026.1 hPa West 4.7 km/h 4.8 km/h 85% 0.0 mm 0 W/m2
02:32 10.9 °C 8.5 °C 1026.1 hPa WNW 6.4 km/h 12.9 km/h 85% 0.0 mm 0 W/m2
02:37 10.8 °C 8.4 °C 1026.1 hPa WSW 6.4 km/h 11.3 km/h 85% 0.0 mm 0 W/m2
02:42 10.7 °C 8.5 °C 1026.1 hPa West 4.7 km/h 11.3 km/h 86% 0.0 mm 0 W/m2
02:47 10.7 °C 8.5 °C 1026.1 hPa West 4.7 km/h 6.4 km/h 86% 0.0 mm 0 W/m2
02:52 10.6 °C 8.5 °C 1026.1 hPa WNW 6.4 km/h 9.7 km/h 87% 0.0 mm 0 W/m2
02:57 10.6 °C 8.5 °C 1026.1 hPa WNW 6.4 km/h 6.4 km/h 87% 0.0 mm 0 W/m2
03:02 10.6 °C 8.5 °C 1026.1 hPa WNW 4.7 km/h 11.3 km/h 87% 0.0 mm 0 W/m2
03:07 10.5 °C 8.4 °C 1026.1 hPa WNW 1.4 km/h 8 km/h 87% 0.0 mm 0 W/m2
03:12 10.4 °C 8.5 °C 1026.1 hPa West 3.2 km/h 11.3 km/h 88% 0.0 mm 0 W/m2
03:17 10.4 °C 8.5 °C 1026.1 hPa West 4.7 km/h 12.9 km/h 88% 0.0 mm 0 W/m2
03:22 10.4 °C 8.5 °C 1026.1 hPa West 4.7 km/h 11.3 km/h 88% 0.0 mm 0 W/m2
03:27 10.3 °C 8.4 °C 1026.1 hPa West 3.2 km/h 12.9 km/h 88% 0.0 mm 0 W/m2
03:32 10.3 °C 8.6 °C 1026.1 hPa West 4.7 km/h 11.3 km/h 89% 0.0 mm 0 W/m2
03:37 10.3 °C 8.6 °C 1026.1 hPa West 4.7 km/h 6.4 km/h 89% 0.0 mm 0 W/m2
03:42 10.3 °C 8.6 °C 1026.1 hPa WSW 3.2 km/h 11.3 km/h 89% 0.0 mm 0 W/m2
03:47 10.3 °C 8.6 °C 1026.1 hPa WNW 1.4 km/h 4.8 km/h 89% 0.0 mm 0 W/m2
03:52 10.3 °C 8.6 °C 1026.1 hPa West 4.7 km/h 11.3 km/h 89% 0.0 mm 0 W/m2
03:57 10.2 °C 8.6 °C 1026.1 hPa West 1.4 km/h 4.8 km/h 90% 0.0 mm 0 W/m2
04:02 10.2 °C 8.6 °C 1026.1 hPa West 3.2 km/h 9.7 km/h 90% 0.0 mm 0 W/m2
04:07 10.2 °C 8.6 °C 1026.4 hPa West 3.2 km/h 4.8 km/h 90% 0.0 mm 0 W/m2
04:12 10.1 °C 8.5 °C 1026.4 hPa West 6.4 km/h 9.7 km/h 90% 0.0 mm 0 W/m2
04:17 10.1 °C 8.5 °C 1026.4 hPa WNW 3.2 km/h 6.4 km/h 90% 0.0 mm 0 W/m2
04:22 10.1 °C 8.5 °C 1026.4 hPa WNW 4.7 km/h 6.4 km/h 90% 0.0 mm 0 W/m2
04:27 10.1 °C 8.7 °C 1026.4 hPa WNW 4.7 km/h 9.7 km/h 91% 0.0 mm 0 W/m2
04:32 10.1 °C 8.7 °C 1026.4 hPa West 3.2 km/h 6.4 km/h 91% 0.0 mm 0 W/m2
04:37 10 °C 8.6 °C 1026.8 hPa West 4.7 km/h 6.4 km/h 91% 0.0 mm 0 W/m2
04:42 10 °C 8.6 °C 1026.8 hPa West 4.7 km/h 11.3 km/h 91% 0.0 mm 0 W/m2
04:47 10 °C 8.6 °C 1026.8 hPa West 4.7 km/h 8 km/h 91% 0.0 mm 0 W/m2
04:52 10 °C 8.6 °C 1026.8 hPa WNW 6.4 km/h 11.3 km/h 91% 0.0 mm 0 W/m2
04:57 10 °C 8.6 °C 1026.8 hPa West 6.4 km/h 9.7 km/h 91% 0.0 mm 0 W/m2
05:02 10 °C 8.6 °C 1026.8 hPa WNW 4.7 km/h 11.3 km/h 91% 0.0 mm 0 W/m2
05:07 10.1 °C 8.7 °C 1026.8 hPa WNW 4.7 km/h 11.3 km/h 91% 0.0 mm 0 W/m2
05:12 10 °C 8.6 °C 1026.8 hPa West 3.2 km/h 4.8 km/h 91% 0.0 mm 0 W/m2
05:17 10 °C 8.6 °C 1026.8 hPa WSW 6.4 km/h 6.4 km/h 91% 0.0 mm 0 W/m2
05:22 9.9 °C 8.5 °C 1027.1 hPa West 3.2 km/h 6.4 km/h 91% 0.0 mm 0 W/m2
05:28 9.9 °C 8.5 °C 1027.1 hPa West 1.4 km/h 4.8 km/h 91% 0.0 mm 0 W/m2
05:33 9.9 °C 8.5 °C 1027.1 hPa West 1.4 km/h 6.4 km/h 91% 0.0 mm 0 W/m2
05:38 9.9 °C 8.5 °C 1027.1 hPa West 3.2 km/h 4.8 km/h 91% 0.0 mm 0 W/m2
05:43 9.9 °C 8.5 °C 1027.1 hPa WNW 1.4 km/h 3.2 km/h 91% 0.0 mm 0 W/m2
05:48 9.8 °C 8.4 °C 1027.1 hPa West 6.4 km/h 8 km/h 91% 0.0 mm 0 W/m2
05:53 9.8 °C 8.4 °C 1027.1 hPa West 3.2 km/h 6.4 km/h 91% 0.0 mm 0 W/m2
05:58 9.8 °C 8.4 °C 1027.4 hPa WNW 1.4 km/h 4.8 km/h 91% 0.0 mm 0 W/m2
06:03 9.8 °C 8.6 °C 1027.4 hPa WNW 1.4 km/h 3.2 km/h 92% 0.0 mm 0 W/m2
06:08 9.8 °C 8.6 °C 1027.4 hPa WNW 3.2 km/h 4.8 km/h 92% 0.0 mm 0 W/m2
06:13 9.8 °C 8.6 °C 1027.4 hPa West 1.4 km/h 4.8 km/h 92% 0.0 mm 0 W/m2
06:18 9.7 °C 8.5 °C 1027.4 hPa WNW 4.7 km/h 4.8 km/h 92% 0.0 mm 0 W/m2
06:23 9.7 °C 8.5 °C 1027.8 hPa West 4.7 km/h 6.4 km/h 92% 0.0 mm 0 W/m2
06:28 9.7 °C 8.5 °C 1027.8 hPa WNW 7.9 km/h 11.3 km/h 92% 0.0 mm 0 W/m2
06:33 9.6 °C 8.4 °C 1027.8 hPa NW 6.4 km/h 6.4 km/h 92% 0.0 mm 0 W/m2
06:38 9.6 °C 8.4 °C 1027.8 hPa WNW 7.9 km/h 8 km/h 92% 0.0 mm 0 W/m2
06:43 9.6 °C 8.5 °C 1027.8 hPa WNW 3.2 km/h 4.8 km/h 93% 0.0 mm 0 W/m2
06:48 9.5 °C 8.4 °C 1028.1 hPa WNW 3.2 km/h 4.8 km/h 93% 0.0 mm 0 W/m2
06:53 9.5 °C 8.4 °C 1028.1 hPa West 3.2 km/h 8 km/h 93% 0.0 mm 0 W/m2
06:58 9.4 °C 8.3 °C 1028.1 hPa West 1.4 km/h 3.2 km/h 93% 0.0 mm 0 W/m2
07:03 9.4 °C 8.3 °C 1028.1 hPa Calm   6.4 km/h 93% 0.0 mm 5 W/m2
07:08 9.4 °C 8.3 °C 1028.5 hPa Calm   3.2 km/h 93% 0.0 mm 5 W/m2
07:13 9.4 °C 8.3 °C 1028.5 hPa WNW 1.4 km/h 1.6 km/h 93% 0.0 mm 9 W/m2
07:18 9.5 °C 8.4 °C 1028.5 hPa WNW 1.4 km/h 3.2 km/h 93% 0.0 mm 9 W/m2
07:23 9.5 °C 8.4 °C 1028.5 hPa WNW 1.4 km/h 3.2 km/h 93% 0.0 mm 14 W/m2
07:28 9.6 °C 8.5 °C 1028.5 hPa WNW 3.2 km/h 3.2 km/h 93% 0.0 mm 14 W/m2
07:33 9.6 °C 8.5 °C 1028.5 hPa West 4.7 km/h 4.8 km/h 93% 0.0 mm 18 W/m2
07:38 9.6 °C 8.5 °C 1028.5 hPa Calm   6.4 km/h 93% 0.0 mm 18 W/m2
07:43 9.6 °C 8.5 °C 1028.5 hPa WNW 1.4 km/h 3.2 km/h 93% 0.0 mm 19 W/m2
07:48 9.7 °C 8.6 °C 1028.8 hPa WNW 1.4 km/h 4.8 km/h 93% 0.0 mm 26 W/m2
07:53 9.7 °C 8.6 °C 1028.8 hPa NW 1.4 km/h 1.6 km/h 93% 0.0 mm 33 W/m2
07:58 9.7 °C 8.6 °C 1028.8 hPa West 3.2 km/h 3.2 km/h 93% 0.0 mm 37 W/m2
08:03 9.8 °C 8.7 °C 1028.8 hPa WNW 4.7 km/h 6.4 km/h 93% 0.0 mm 42 W/m2
08:08 9.8 °C 8.7 °C 1028.8 hPa Calm     93% 0.0 mm 54 W/m2
08:13 9.8 °C 8.7 °C 1028.8 hPa WNW 1.4 km/h 1.6 km/h 93% 0.0 mm 63 W/m2
08:18 9.8 °C 8.7 °C 1028.8 hPa NW 3.2 km/h 4.8 km/h 93% 0.0 mm 77 W/m2
08:23 9.9 °C 8.8 °C 1029.1 hPa NNW 1.4 km/h 3.2 km/h 93% 0.0 mm 95 W/m2
08:28 10.1 °C 9 °C 1029.1 hPa Calm   4.8 km/h 93% 0.0 mm 93 W/m2
08:33 10.2 °C 9 °C 1029.1 hPa NNE 1.4 km/h 3.2 km/h 92% 0.0 mm 90 W/m2
08:39 10.2 °C 9 °C 1029.1 hPa North 1.4 km/h 3.2 km/h 92% 0.0 mm 93 W/m2
08:44 10.2 °C 9 °C 1029.1 hPa NNW 3.2 km/h 4.8 km/h 92% 0.0 mm 125 W/m2
08:49 10.3 °C 9.1 °C 1029.1 hPa NW 3.2 km/h 4.8 km/h 92% 0.0 mm 171 W/m2
08:54 10.3 °C 8.9 °C 1029.5 hPa North 3.2 km/h 4.8 km/h 91% 0.0 mm 325 W/m2
08:59 10.6 °C 9.4 °C 1029.5 hPa NW 1.4 km/h 6.4 km/h 92% 0.0 mm 316 W/m2
09:04 10.8 °C 9.4 °C 1029.5 hPa WNW 3.2 km/h 4.8 km/h 91% 0.0 mm 346 W/m2
09:09 11 °C 9.4 °C 1029.5 hPa WNW 4.7 km/h 6.4 km/h 90% 0.0 mm 193 W/m2
09:14 11.1 °C 9.4 °C 1029.5 hPa WNW 6.4 km/h 6.4 km/h 89% 0.0 mm 165 W/m2
09:19 11.1 °C 9.2 °C 1029.5 hPa WNW 3.2 km/h 14.5 km/h 88% 0.0 mm 186 W/m2
09:24 11.1 °C 9.2 °C 1029.5 hPa NW 4.7 km/h 6.4 km/h 88% 0.0 mm 283 W/m2
09:29 11.2 °C 9.3 °C 1029.5 hPa West 4.7 km/h 14.5 km/h 88% 0.0 mm 332 W/m2
09:34 11.2 °C 9.1 °C 1029.5 hPa NW 6.4 km/h 12.9 km/h 87% 0.0 mm 192 W/m2
09:39 11.2 °C 9.1 °C 1029.5 hPa WNW 3.2 km/h 11.3 km/h 87% 0.0 mm 306 W/m2
09:44 11.3 °C 9 °C 1029.5 hPa West 6.4 km/h 11.3 km/h 86% 0.0 mm 359 W/m2
09:49 11.5 °C 9.1 °C 1029.5 hPa West 3.2 km/h 4.8 km/h 85% 0.0 mm 360 W/m2
09:54 11.8 °C 9.4 °C 1029.5 hPa NNW 6.4 km/h 11.3 km/h 85% 0.0 mm 367 W/m2
10:00 11.9 °C 9.1 °C 1029.5 hPa West 6.4 km/h 11.3 km/h 83% 0.0 mm 336 W/m2
10:05 11.9 °C 9.1 °C 1029.5 hPa WNW 6.4 km/h 8 km/h 83% 0.0 mm 413 W/m2
10:10 12.1 °C 9.3 °C 1029.5 hPa WNW 6.4 km/h 6.4 km/h 83% 0.0 mm 427 W/m2
10:15 12.2 °C 8.9 °C 1029.5 hPa WNW 3.2 km/h 6.4 km/h 80% 0.0 mm 431 W/m2
10:20 12.4 °C 9.2 °C 1029.8 hPa West 6.4 km/h 9.7 km/h 81% 0.0 mm 397 W/m2
10:25 12.4 °C 9 °C 1029.8 hPa North 3.2 km/h 12.9 km/h 80% 0.0 mm 438 W/m2
10:30 12.5 °C 9 °C 1029.8 hPa WNW 6.4 km/h 6.4 km/h 79% 0.0 mm 454 W/m2
10:35 12.6 °C 8.9 °C 1029.8 hPa WNW 4.7 km/h 12.9 km/h 78% 0.0 mm 450 W/m2
10:40 12.7 °C 9 °C 1029.8 hPa West 3.2 km/h 6.4 km/h 78% 0.0 mm 485 W/m2
10:45 12.8 °C 8.9 °C 1029.8 hPa WSW 6.4 km/h 12.9 km/h 77% 0.0 mm 480 W/m2
10:50 13 °C 9.3 °C 1029.8 hPa West 4.7 km/h 8 km/h 78% 0.0 mm 504 W/m2
10:55 13.2 °C 8.9 °C 1029.8 hPa West 9.7 km/h 12.9 km/h 75% 0.0 mm 496 W/m2
11:00 13.2 °C 8.5 °C 1030.1 hPa SW 4.7 km/h 16.1 km/h 73% 0.0 mm 512 W/m2
11:05 13.1 °C 8.4 °C 1030.1 hPa WNW 14.3 km/h 14.5 km/h 73% 0.0 mm 512 W/m2
11:10 13.1 °C 8.4 °C 1030.1 hPa West 9.7 km/h 20.9 km/h 73% 0.0 mm 533 W/m2
11:15 13.2 °C 8.5 °C 1030.1 hPa WNW 11.1 km/h 11.3 km/h 73% 0.0 mm 533 W/m2
11:20 13.4 °C 8.7 °C 1030.1 hPa WSW 7.9 km/h 20.9 km/h 73% 0.0 mm 526 W/m2
11:25 13.3 °C 8.6 °C 1030.1 hPa WSW 6.4 km/h 20.9 km/h 73% 0.0 mm 561 W/m2
11:30 13.6 °C 8.9 °C 1030.1 hPa WNW 1.4 km/h 9.7 km/h 73% 0.0 mm 619 W/m2
11:36 13.7 °C 8.7 °C 1030.1 hPa West 6.4 km/h 11.3 km/h 72% 0.0 mm 591 W/m2
11:41 13.7 °C 8.7 °C 1030.1 hPa West 9.7 km/h 9.7 km/h 72% 0.0 mm 464 W/m2
11:46 13.7 °C 8.7 °C 1030.1 hPa WSW 3.2 km/h 8 km/h 72% 0.0 mm 573 W/m2
11:51 13.8 °C 8.6 °C 1030.1 hPa West 14.3 km/h 14.5 km/h 71% 0.0 mm 573 W/m2
11:56 13.8 °C 8.4 °C 1030.1 hPa NNW 1.4 km/h 8 km/h 70% 0.0 mm 552 W/m2
12:01 13.9 °C 8.5 °C 1030.1 hPa WSW 11.1 km/h 17.7 km/h 70% 0.0 mm 554 W/m2
12:06 13.9 °C 8.1 °C 1030.1 hPa West 4.7 km/h 11.3 km/h 68% 0.0 mm 566 W/m2
12:11 14 °C 8.2 °C 1030.1 hPa WNW 4.7 km/h 17.7 km/h 68% 0.0 mm 568 W/m2
12:16 14.1 °C 8.3 °C 1030.1 hPa WNW 7.9 km/h 12.9 km/h 68% 0.0 mm 541 W/m2
12:26 14.2 °C 8.6 °C 1030.1 hPa WNW 6.4 km/h 9.7 km/h 69% 0.0 mm 545 W/m2
12:31 14.3 °C 8.9 °C 1030.1 hPa North 4.7 km/h 6.4 km/h 70% 0.0 mm 489 W/m2
12:36 14.3 °C 8.7 °C 1029.8 hPa WSW 9.7 km/h 9.7 km/h 69% 0.0 mm 568 W/m2
12:42 14.2 °C 8.8 °C 1030.1 hPa WNW 9.7 km/h 9.7 km/h 70% 0.0 mm 142 W/m2
12:47 13.8 °C 8.4 °C 1029.8 hPa WNW 9.7 km/h 11.3 km/h 70% 0.0 mm 144 W/m2
12:52 13.8 °C 8.6 °C 1029.8 hPa NNW 3.2 km/h 3.2 km/h 71% 0.0 mm 573 W/m2
12:57 13.9 °C 8.7 °C 1029.8 hPa West 3.2 km/h 14.5 km/h 71% 0.0 mm 188 W/m2
13:02 14.2 °C 8.8 °C 1029.8 hPa West 3.2 km/h 9.7 km/h 70% 0.0 mm 146 W/m2
13:07 14.2 °C 9 °C 1029.8 hPa WSW 3.2 km/h 14.5 km/h 71% 0.0 mm 160 W/m2
13:12 14.1 °C 8.7 °C 1029.8 hPa West 3.2 km/h 11.3 km/h 70% 0.0 mm 239 W/m2
13:17 14.1 °C 8.7 °C 1029.8 hPa NNW 7.9 km/h 11.3 km/h 70% 0.0 mm 239 W/m2
13:22 14.3 °C 8.9 °C 1029.8 hPa West 3.2 km/h 4.8 km/h 70% 0.0 mm 580 W/m2
13:27 14.5 °C 8.9 °C 1029.8 hPa WNW 11.1 km/h 16.1 km/h 69% 0.0 mm 552 W/m2
13:32 14.7 °C 8.9 °C 1029.8 hPa NW 7.9 km/h 14.5 km/h 68% 0.0 mm 564 W/m2
13:37 14.8 °C 9.2 °C 1029.8 hPa West 6.4 km/h 11.3 km/h 69% 0.0 mm 536 W/m2
13:42 15 °C 9.1 °C 1029.8 hPa WSW 7.9 km/h 9.7 km/h 68% 0.0 mm 534 W/m2
13:47 15.1 °C 9 °C 1029.5 hPa WSW 3.2 km/h 4.8 km/h 67% 0.0 mm 577 W/m2
13:52 15.2 °C 9.3 °C 1029.5 hPa NW 13 km/h 12.9 km/h 68% 0.0 mm 555 W/m2
13:57 15.4 °C 9.1 °C 1029.5 hPa WNW 9.7 km/h 14.5 km/h 66% 0.0 mm 575 W/m2
14:02 15.4 °C 9.1 °C 1029.5 hPa West 9.7 km/h 12.9 km/h 66% 0.0 mm 543 W/m2
14:07 15.3 °C 9 °C 1029.5 hPa WNW 7.9 km/h 14.5 km/h 66% 0.0 mm 522 W/m2
14:12 15 °C 8.9 °C 1029.5 hPa NW 3.2 km/h 4.8 km/h 67% 0.0 mm 90 W/m2
14:17 14.8 °C 8.7 °C 1029.5 hPa NW 6.4 km/h 14.5 km/h 67% 0.0 mm 97 W/m2
14:22 14.7 °C 8.6 °C 1029.5 hPa WSW 6.4 km/h 9.7 km/h 67% 0.0 mm 95 W/m2
14:27 14.7 °C 8.9 °C 1029.5 hPa WNW 6.4 km/h 11.3 km/h 68% 0.0 mm 464 W/m2
14:32 14.9 °C 9 °C 1029.5 hPa WNW 3.2 km/h 11.3 km/h 68% 0.0 mm 497 W/m2
14:38 14.9 °C 8.8 °C 1029.5 hPa West 6.4 km/h 11.3 km/h 67% 0.0 mm 132 W/m2
14:43 14.9 °C 9 °C 1029.5 hPa West 6.4 km/h 11.3 km/h 68% 0.0 mm 86 W/m2
14:48 14.8 °C 9 °C 1029.5 hPa WSW 4.7 km/h 6.4 km/h 68% 0.0 mm 178 W/m2
14:53 14.9 °C 9 °C 1029.5 hPa West 4.7 km/h 11.3 km/h 68% 0.0 mm 471 W/m2
14:58 15.3 °C 9.2 °C 1029.5 hPa WNW 4.7 km/h 6.4 km/h 67% 0.0 mm 461 W/m2
15:03 15.6 °C 9.3 °C 1029.1 hPa NW 4.7 km/h 8 km/h 66% 0.0 mm 480 W/m2
15:08 15.8 °C 9.2 °C 1029.5 hPa WNW 7.9 km/h 8 km/h 65% 0.0 mm 487 W/m2
15:13 15.8 °C 9.2 °C 1029.1 hPa WNW 7.9 km/h 9.7 km/h 65% 0.0 mm 478 W/m2
15:18 15.8 °C 9.2 °C 1029.1 hPa WNW 4.7 km/h 11.3 km/h 65% 0.0 mm 461 W/m2
15:23 15.8 °C 9 °C 1029.1 hPa WNW 14.3 km/h 14.5 km/h 64% 0.0 mm 496 W/m2
15:28 15.8 °C 9 °C 1029.1 hPa NW 7.9 km/h 11.3 km/h 64% 0.0 mm 455 W/m2
15:33 15.9 °C 9.1 °C 1029.1 hPa WNW 14.5 km/h 14.5 km/h 64% 0.0 mm 411 W/m2
15:38 15.8 °C 8.8 °C 1029.1 hPa WNW 6.4 km/h 9.7 km/h 63% 0.0 mm 98 W/m2
15:43 15.7 °C 8.9 °C 1029.1 hPa WSW 6.4 km/h 9.7 km/h 64% 0.0 mm 350 W/m2
15:48 15.5 °C 8.7 °C 1029.1 hPa West 4.7 km/h 11.3 km/h 64% 0.0 mm 318 W/m2
15:53 15.5 °C 8.7 °C 1029.1 hPa West 9.7 km/h 11.3 km/h 64% 0.0 mm 339 W/m2
15:58 15.5 °C 8.7 °C 1029.1 hPa WNW 6.4 km/h 11.3 km/h 64% 0.0 mm 178 W/m2
16:03 15.6 °C 8.8 °C 1029.1 hPa West 3.2 km/h 4.8 km/h 64% 0.0 mm 346 W/m2
16:08 15.7 °C 8.9 °C 1029.1 hPa WSW 6.4 km/h 12.9 km/h 64% 0.0 mm 334 W/m2
16:13 15.8 °C 8.8 °C 1028.8 hPa SW 6.4 km/h 9.7 km/h 63% 0.0 mm 322 W/m2
16:18 15.8 °C 8.5 °C 1028.8 hPa West 4.7 km/h 12.9 km/h 62% 0.0 mm 63 W/m2
16:23 15.7 °C 8.7 °C 1028.8 hPa NW 4.7 km/h 4.8 km/h 63% 0.0 mm 74 W/m2
16:28 15.8 °C 8.8 °C 1028.8 hPa NNW 1.4 km/h 9.7 km/h 63% 0.0 mm 279 W/m2
16:33 15.8 °C 8.8 °C 1028.8 hPa NW 3.2 km/h 6.4 km/h 63% 0.0 mm 137 W/m2
16:38 15.8 °C 8.8 °C 1028.8 hPa West 3.2 km/h 4.8 km/h 63% 0.0 mm 250 W/m2
16:43 15.9 °C 9.1 °C 1028.8 hPa SW 6.4 km/h 8 km/h 64% 0.0 mm 246 W/m2
16:48 15.9 °C 8.9 °C 1028.8 hPa WNW 11.1 km/h 11.3 km/h 63% 0.0 mm 230 W/m2
16:53 15.9 °C 8.9 °C 1028.8 hPa WSW 3.2 km/h 4.8 km/h 63% 0.0 mm 202 W/m2
16:58 16 °C 8.7 °C 1028.5 hPa WNW 4.7 km/h 6.4 km/h 62% 0.0 mm 207 W/m2
17:03 15.9 °C 8.1 °C 1028.5 hPa WNW 3.2 km/h 11.3 km/h 60% 0.0 mm 186 W/m2
17:08 15.9 °C 8.4 °C 1028.8 hPa West 3.2 km/h 4.8 km/h 61% 0.0 mm 127 W/m2
17:13 15.9 °C 8.1 °C 1028.5 hPa WNW 4.7 km/h 9.7 km/h 60% 0.0 mm 128 W/m2
17:18 15.9 °C 8.4 °C 1028.5 hPa West 1.4 km/h 3.2 km/h 61% 0.0 mm 120 W/m2
17:23 15.8 °C 8.3 °C 1028.5 hPa West 3.2 km/h 8 km/h 61% 0.0 mm 105 W/m2
17:28 15.8 °C 8.5 °C 1028.5 hPa West 3.2 km/h 3.2 km/h 62% 0.0 mm 118 W/m2
17:33 15.7 °C 8.4 °C 1028.8 hPa WNW 4.7 km/h 8 km/h 62% 0.0 mm 111 W/m2
17:38 15.7 °C 8.4 °C 1028.8 hPa West 6.4 km/h 8 km/h 62% 0.0 mm 93 W/m2
17:43 15.5 °C 8.2 °C 1028.5 hPa WNW 1.4 km/h 4.8 km/h 62% 0.0 mm 67 W/m2
17:48 15.3 °C 8.3 °C 1028.5 hPa WNW 3.2 km/h 4.8 km/h 63% 0.0 mm 40 W/m2
17:53 15.1 °C 8.1 °C 1028.5 hPa West 4.7 km/h 4.8 km/h 63% 0.0 mm 37 W/m2
17:58 14.9 °C 8.1 °C 1028.5 hPa West 1.4 km/h 1.6 km/h 64% 0.0 mm 33 W/m2
18:03 14.8 °C 8.3 °C 1028.5 hPa West 1.4 km/h 3.2 km/h 65% 0.0 mm 28 W/m2
18:08 14.6 °C 8.3 °C 1028.5 hPa Calm   1.6 km/h 66% 0.0 mm 26 W/m2
18:13 14.4 °C 8.6 °C 1028.5 hPa Calm   1.6 km/h 68% 0.0 mm 23 W/m2
18:18 14.2 °C 8.4 °C 1028.5 hPa Calm     68% 0.0 mm 19 W/m2
18:23 13.9 °C 8.3 °C 1028.5 hPa Calm   1.6 km/h 69% 0.0 mm 18 W/m2
18:28 13.6 °C 8.2 °C 1028.5 hPa West 1.4 km/h 1.6 km/h 70% 0.0 mm 12 W/m2
18:33 13.4 °C 8.2 °C 1028.5 hPa Calm     71% 0.0 mm 9 W/m2
18:38 13.1 °C 8.2 °C 1028.5 hPa Calm     72% 0.0 mm 7 W/m2
18:43 12.9 °C 8.2 °C 1028.8 hPa Calm   1.6 km/h 73% 0.0 mm 0 W/m2
18:48 12.6 °C 8.1 °C 1028.8 hPa Calm     74% 0.0 mm 0 W/m2
18:53 12.4 °C 8.1 °C 1028.8 hPa Calm     75% 0.0 mm 0 W/m2
18:58 12.1 °C 8 °C 1028.8 hPa Calm     76% 0.0 mm 0 W/m2
19:03 11.8 °C 7.9 °C 1028.8 hPa Calm     77% 0.0 mm 0 W/m2
19:08 11.7 °C 8 °C 1028.8 hPa Calm     78% 0.0 mm 0 W/m2
19:14 11.5 °C 7.8 °C 1028.8 hPa Calm     78% 0.0 mm 0 W/m2
19:19 11.4 °C 7.9 °C 1028.8 hPa Calm     79% 0.0 mm 0 W/m2
19:24 11.3 °C 8 °C 1029.1 hPa Calm     80% 0.0 mm 0 W/m2
19:29 11.2 °C 7.9 °C 1029.1 hPa Calm     80% 0.0 mm 0 W/m2
19:34 11.1 °C 7.8 °C 1029.1 hPa Calm     80% 0.0 mm 0 W/m2
19:39 10.9 °C 7.8 °C 1029.1 hPa Calm     81% 0.0 mm 0 W/m2
19:44 10.8 °C 7.7 °C 1029.1 hPa Calm     81% 0.0 mm 0 W/m2
19:49 10.7 °C 7.6 °C 1029.1 hPa Calm     81% 0.0 mm 0 W/m2
19:54 10.6 °C 7.7 °C 1029.1 hPa Calm     82% 0.0 mm 0 W/m2
19:59 10.5 °C 7.6 °C 1029.1 hPa Calm     82% 0.0 mm 0 W/m2
20:04 10.4 °C 7.5 °C 1029.1 hPa Calm     82% 0.0 mm 0 W/m2
20:09 10.4 °C 7.5 °C 1029.1 hPa Calm     82% 0.0 mm 0 W/m2
20:14 10.3 °C 7.5 °C 1029.5 hPa Calm     83% 0.0 mm 0 W/m2
20:19 10.3 °C 7.5 °C 1029.5 hPa Calm     83% 0.0 mm 0 W/m2
20:24 10.2 °C 7.4 °C 1029.5 hPa Calm     83% 0.0 mm 0 W/m2
20:29 10.1 °C 7.5 °C 1029.5 hPa Calm     84% 0.0 mm 0 W/m2
20:34 10 °C 7.4 °C 1029.5 hPa Calm     84% 0.0 mm 0 W/m2
20:39 9.9 °C 7.5 °C 1029.5 hPa Calm     85% 0.0 mm 0 W/m2
20:44 9.9 °C 7.5 °C 1029.5 hPa Calm     85% 0.0 mm 0 W/m2
20:49 9.8 °C 7.4 °C 1029.5 hPa Calm     85% 0.0 mm 0 W/m2
20:54 9.7 °C 7.3 °C 1029.5 hPa Calm     85% 0.0 mm 0 W/m2
20:59 9.6 °C 7.2 °C 1029.8 hPa Calm     85% 0.0 mm 0 W/m2
21:04 9.6 °C 7.2 °C 1029.8 hPa Calm     85% 0.0 mm 0 W/m2
21:09 9.5 °C 7.3 °C 1029.8 hPa Calm     86% 0.0 mm 0 W/m2
21:14 9.5 °C 7.3 °C 1029.8 hPa Calm     86% 0.0 mm 0 W/m2
21:19 9.5 °C 7.3 °C 1029.8 hPa Calm     86% 0.0 mm 0 W/m2
21:24 9.4 °C 7.2 °C 1029.8 hPa Calm     86% 0.0 mm 0 W/m2
21:29 9.3 °C 7.1 °C 1029.8 hPa Calm     86% 0.0 mm 0 W/m2
21:34 9.3 °C 7.1 °C 1029.8 hPa Calm     86% 0.0 mm 0 W/m2
21:39 9.2 °C 7.1 °C 1029.8 hPa Calm     87% 0.0 mm 0 W/m2
21:44 9.2 °C 7.1 °C 1029.8 hPa Calm     87% 0.0 mm 0 W/m2
21:49 9.2 °C 7.1 °C 1029.5 hPa Calm     87% 0.0 mm 0 W/m2
21:54 9.1 °C 7.1 °C 1029.5 hPa Calm     87% 0.0 mm 0 W/m2
21:59 9.1 °C 7.1 °C 1029.5 hPa Calm     87% 0.0 mm 0 W/m2
22:04 8.9 °C 6.9 °C 1029.5 hPa Calm     87% 0.0 mm 0 W/m2
22:09 8.8 °C 6.9 °C 1029.5 hPa Calm     88% 0.0 mm 0 W/m2
22:14 8.8 °C 6.9 °C 1029.5 hPa Calm     88% 0.0 mm 0 W/m2
22:19 8.7 °C 6.8 °C 1029.5 hPa Calm     88% 0.0 mm 0 W/m2
22:24 8.7 °C 6.8 °C 1029.5 hPa Calm     88% 0.0 mm 0 W/m2
22:30 8.6 °C 6.7 °C 1029.5 hPa Calm     88% 0.0 mm 0 W/m2
22:35 8.6 °C 6.9 °C 1029.5 hPa Calm     89% 0.0 mm 0 W/m2
22:40 8.5 °C 6.8 °C 1029.5 hPa Calm     89% 0.0 mm 0 W/m2
22:45 8.4 °C 6.7 °C 1029.5 hPa Calm     89% 0.0 mm 0 W/m2
22:50 8.3 °C 6.6 °C 1029.5 hPa West 1.4 km/h 3.2 km/h 89% 0.0 mm 0 W/m2
22:55 8.3 °C 6.6 °C 1029.5 hPa Calm     89% 0.0 mm 0 W/m2
23:00 8.3 °C 6.6 °C 1029.5 hPa Calm     89% 0.0 mm 0 W/m2
23:05 8.3 °C 6.8 °C 1029.5 hPa Calm   3.2 km/h 90% 0.0 mm 0 W/m2
23:10 8.3 °C 6.8 °C 1029.5 hPa Calm     90% 0.0 mm 0 W/m2
23:15 8.2 °C 6.7 °C 1029.5 hPa Calm   3.2 km/h 90% 0.0 mm 0 W/m2
23:20 8.2 °C 6.7 °C 1029.5 hPa Calm     90% 0.0 mm 0 W/m2
23:25 8.1 °C 6.6 °C 1029.5 hPa Calm     90% 0.0 mm 0 W/m2
23:30 8.1 °C 6.6 °C 1029.5 hPa Calm     90% 0.0 mm 0 W/m2
23:35 8.2 °C 6.8 °C 1029.5 hPa West 1.4 km/h 1.6 km/h 91% 0.0 mm 0 W/m2
23:40 8.1 °C 6.6 °C 1029.5 hPa Calm   1.6 km/h 90% 0.0 mm 0 W/m2
23:45 8 °C 6.5 °C 1029.5 hPa Calm     90% 0.0 mm 0 W/m2
23:50 7.9 °C 6.4 °C 1029.5 hPa Calm     90% 0.0 mm 0 W/m2
23:55 7.9 °C 6.4 °C 1029.5 hPa Calm     90% 0.0 mm 0 W/m2
Juneau County Weather
Compliments of Weather Underground - 4 mb